LSZLETSH

Guest
Details From LSZL - Locarno
To ETSH - Holzdorf
Flight Number -
Tags Decoded
Created
Modified
Stats Distance 404 nm / 748 km
Max Altitude 0 ft / 0 m
Waypoints 4
Social Downloads 0
Likes 0
Share VATSIM

Download

Looking for another format? Having issues loading an existing format? Contact us
Advertisement - Login to hide

Notes

Decoded

Route

ABESI LOHRE ROBEL RUDAK

ID Type Via Altitude Latitude Longitude Leg Dist Tot Dist Heading (true) Name
O ABESI FIX - 0 ft / 0 m 46.15972˚ 9.04278˚ - 0 nm - -
LOHRE FIX - 0 ft / 0 m 50.06694˚ 9.48639˚ 235 nm 235 nm 4° / 5° -
ROBEL FIX - 0 ft / 0 m 50.89753˚ 10.43367˚ 61 nm 296 nm 36° / 36° -
O RUDAK FIX - 0 ft / 0 m 51.72722˚ 12.94639˚ 106 nm 403 nm 61° / 63° -

Altitude Profile

Advertisement - Login to hide

Weather


0- 5 10 15 20 25 30 35+ Temperature / ° C

Clouds and Precipitation
Forecast for 2018-05-25 00:00 UTC. Updated 36 minutes ago

Ground ~20,000 ft ~40,000 ft Winds

LSZL

Details ICAO LSZL (ZJI)
Name Locarno
Region Switzerland
Timezone Europe/Zurich (UTC+2.0)
Stats Elevation 650 ft / 198 m (AMSL)
Location 46.162618° 8.879874°
Runways 3
Magnetic Variation 2.470° E

METAR

LSZL 242250Z AUTO 05003KT 360V090 9999NDV NCD 16/13 Q1018 RMK

Decode

TAF

Not found

Departure Runways

ID Width Length Bearing (true) Bearing (mag) Surface Threshold Offset Overrun Length
08C 98 ft / 30 m 2,298 ft / 700 m 80.00° 77.53° Grass 0 ft / 0 m 0 ft / 0 m
08L 75 ft / 23 m 2,626 ft / 801 m 80.00° 77.53° Asphalt 0 ft / 0 m 0 ft / 0 m
08R 98 ft / 30 m 2,298 ft / 700 m 80.00° 77.53° Grass 0 ft / 0 m 0 ft / 0 m
26C 98 ft / 30 m 2,298 ft / 700 m 260.00° 257.53° Grass 0 ft / 0 m 0 ft / 0 m
26L 98 ft / 30 m 2,298 ft / 700 m 260.00° 257.53° Grass 0 ft / 0 m 0 ft / 0 m
26R 75 ft / 23 m 2,626 ft / 801 m 260.00° 257.53° Asphalt 0 ft / 0 m 0 ft / 0 m

ETSH

Details ICAO ETSH
Name Holzdorf
Region Germany - Military
Timezone Europe/Berlin (UTC+2.0)
Stats Elevation 265 ft / 81 m (AMSL)
Location 51.767834° 13.167667°
Runways 1
Magnetic Variation 3.730° E

METAR

ETSH 242320Z 08006KT 9999 BKN270 17/09 Q1020 BLU+

Decode

TAF

Not found

Destination Runways

ID Width Length Bearing (true) Bearing (mag) Surface Threshold Offset Overrun Length
09 98 ft / 30 m 7,919 ft / 2,414 m 93.51° 89.78° Asphalt 0 ft / 0 m 1,001 ft / 305 m
27 98 ft / 30 m 7,919 ft / 2,414 m 273.54° 269.81° Asphalt 0 ft / 0 m 1,001 ft / 305 m

Approach Navaids

Runway Type Ident Frequency Range Bearing (true) Bearing (mag) Slope Elevation
27 Localiser IHDW 111.70 MHz 18 nm / 33 km 273.62° 269.89° - 264 ft / 80 m (AMSL)
27 Glidescope IHDW 111.70 MHz 10 nm / 19 km 273.52° 269.79° 3.00° 296 ft / 90 m (AMSL)